AirNav   Advertisement
 
 1543 users online  

IL17 Center Point Heliport
Oak Brook, Illinois, USA

GOING TO OAK BROOK?


FAA INFORMATION EFFECTIVE 14 SEPTEMBER 2017

Location

FAA Identifier: IL17
Lat/Long: 41-50-59.0000N / 087-55-38.0000W
41-50.983333N / 087-55.633333W
41.8497222 / -87.9272222
(estimated)
Elevation: 660 ft. / 201 m (estimated)
Time zone: UTC -5 (UTC -6 during Standard Time)
Zip code: 60523

Heliport Operations

Heliport use: Private use. Permission required prior to landing
Activation date: 03/2005
Control tower: no
ARTCC: CHICAGO CENTER
FSS: KANKAKEE FLIGHT SERVICE STATION
Attendance: UNATNDD
Wind indicator: yes
Segmented circle: no

Heliport Communications

WX ASOS at ORD (8 nm N): PHONE 773-462-0118
WX ASOS at MDW (9 nm SE): PHONE 773-884-4424
WX AWOS-AV at 06C (11 nm NW): 128.275
WX ASOS at DPA (15 nm W): PHONE 630-584-2728
WX ASOS at PWK (16 nm N): PHONE 847-465-0291
WX AWOS-3 at LOT (16 nm SW): 118.525 (815-588-4802)

Nearby radio navigation aids

VOR radial/distance  VOR name  Freq  Var
ORDr185/8.3CHICAGO O'HARE VOR/DME113.9002E
DPAr095/19.1DUPAGE VOR/DME108.4002E
OBKr179/22.3NORTHBROOK VOR/DME113.0002W
JOTr042/25.3JOLIET VORTAC112.3002E
CGTr320/25.9CHICAGO HEIGHTS VORTAC114.2002E
EONr348/35.3PEOTONE VORTAC113.2002E

Heliport Services

Runway Information

Helipad H1

Dimensions: 56 x 56 ft. / 17 x 17 m
Surface: asphalt
Traffic pattern: leftleft

Heliport Ownership and Management from official FAA records

Ownership: Privately-owned
Owner: CENTER POINT PROPERTIES TRUST
1808 SWIFT DRIVE, STE. A
OAK BROOK, IL 60523-1501
Phone 630-586-8158
Manager: MICHELLE GRANA
1808 SWIFT DRIVE, STE. A
OAK BROOK, IL 60523-1501
Phone (630) 586-8155

Instrument Procedures

There are no published instrument procedures at IL17.

Some nearby airports with instrument procedures:

KORD - Chicago O'Hare International Airport (8 nm N)
KMDW - Chicago Midway International Airport (9 nm SE)
1C5 - Bolingbrook's Clow International Airport (13 nm SW)
KDPA - DuPage Airport (15 nm W)
KPWK - Chicago Executive Airport (16 nm N)
KLOT - Lewis University Airport (16 nm SW)
 
Loc | Ops | Rwys | IFR | FBO | Links
Com | Nav | Svcs | Stats | Notes


 
Area around IL17 (Center Point Heliport)
 
Road maps at: MapQuest Bing Google
 
Aerial photo
No photo
 
Sectional chart

 
Airport distance calculator
Flying to Center Point Heliport? Find the distance to fly.

From to IL17

Sunrise and sunset
Times for 20-Sep-2017
 Local
(UTC-5)
 Zulu
(UTC)
Morning civil twilight06:1011:10
Sunrise06:3811:38
Sunset18:5223:52
Evening civil twilight19:2000:20

Current date and time
Zulu (UTC)  20-Sep-2017 20:13:46
Local (UTC-5)  20-Sep-2017 15:13:46
 
METAR
KORD 
8nm N 
201951Z 19015KT 10SM FEW047 FEW100 SCT250 33/19 A2986 RMK AO2 SLP107 T03280194
KMDW 
9nm SE 
201953Z 21014G23KT 10SM FEW050 33/20 A2988 RMK AO2 SLP105 T03330200
4IS3 
15nm E 
SuperAWOS
201935Z AUTO 18007KT 090V270 32/20 A2994
KDPA 
15nm W 
201952Z 18015G24KT 8SM CLR 33/21 A2986 RMK AO2 SLP105 T03280206
KLOT 
16nm SW 
201955Z AUTO 19013G16KT 10SM SCT048 33/20 A2988 RMK AO2 T03260202
KPWK 
16nm N 
201952Z 18019G23KT 10SM CLR 33/21 A2987 RMK AO2 SLP110 T03330206
TAF
KORD 
8nm N 
201722Z 2018/2124 18012G19KT P6SM SCT250 FM210100 19006KT P6SM BKN200 FM211600 18010KT P6SM FEW250
KMDW 
9nm SE 
201722Z 2018/2118 18013G20KT P6SM SCT250 FM210100 19007KT P6SM BKN200
KDPA 
15nm W 
201722Z 2018/2118 18011G17KT P6SM SCT250 FM210100 18006KT P6SM BKN200 TEMPO 2109/2113 4SM BR
NOTAMs
Click for the latest NOTAMs
NOTAMs are issued by the DoD/FAA and will open in a separate window not controlled by AirNav.

 

 
 

Would you like to see your business listed on this page?

 If your business provides an interesting product or service to pilots, flight crews, aircraft, or users of the Center Point Heliport, you should consider listing it here.  To start the listing process, click on the button below
 
Add a business
 

Other Pages about Center Point Heliport

Update a link
 
Copyright © AirNav, LLC. All rights reserved. Privacy Policy  Contact